CW5306 Weather Reports


Display with metric or nautical units.
time (UTC)temp
F
wind
direction
speed
MPH
gust
MPH
rain 1hr
in
rain 24hr
in
rain mn
in
humidity
%
barometer
mb
20260502200352 78 97 7.0 21.0 0.00 0.00 0.00 70 1017.5
20260502200123 78 115 13.0 21.0 0.00 0.00 0.00 71 1017.3
20260502195351 78 98 7.0 19.0 0.00 0.00 0.00 73 1017.4
20260502195124 78 126 7.0 19.0 0.00 0.00 0.00 70 1017.6
20260502194354 78 112 8.0 21.0 0.00 0.00 0.00 70 1017.4
20260502193852 79 113 10.0 21.0 0.00 0.00 0.00 69 1017.6
20260502193352 78 80 9.0 17.0 0.00 0.00 0.00 70 1017.5
20260502192851 79 108 4.0 16.0 0.00 0.00 0.00 71 1017.3
20260502192351 78 118 8.0 16.0 0.00 0.00 0.00 71 1017.4
20260502191852 78 60 6.0 16.0 0.00 0.00 0.00 71 1017.3
20260502191352 79 133 3.0 16.0 0.00 0.00 0.00 70 1017.3
20260502190851 78 93 10.0 16.0 0.00 0.00 0.00 70 1017.7
20260502190351 78 85 4.0 17.0 0.00 0.00 0.00 71 1017.6
20260502185852 78 121 8.0 17.0 0.00 0.00 0.00 71 1017.5
20260502185353 77 72 5.0 17.0 0.00 0.00 0.00 73 1017.5
20260502185124 77 84 11.0 16.0 0.00 0.00 0.00 74 1017.5
20260502184352 77 65 8.0 17.0 0.00 0.00 0.00 72 1017.7
20260502183852 77 93 4.0 19.0 0.00 0.00 0.00 72 1017.7
20260502183351 77 88 4.0 19.0 0.00 0.00 0.00 70 1017.5
20260502182852 77 94 8.0 20.0 0.00 0.00 0.00 71 1017.5
20260502182351 77 104 6.0 20.0 0.00 0.00 0.00 71 1017.5
20260502181851 77 76 9.0 17.0 0.00 0.00 0.00 72 1017.5
20260502181623 77 58 3.0 14.0 0.00 0.00 0.00 74 1017.6
20260502180851 77 119 7.0 16.0 0.00 0.00 0.00 73 1017.5
20260502180352 76 133 8.0 16.0 0.00 0.00 0.00 73 1017.6
20260502170339 74 107 7.0 15.0 0.00 0.00 0.00 74 1016.9
20260502164328 74 72 9.0 17.0 0.00 0.00 0.00 74 1016.6
20260502163827 73 78 8.0 15.0 0.00 0.00 0.00 76 1016.9
20260502163327 73 98 6.0 15.0 0.00 0.00 0.00 76 1016.8
20260502162828 73 101 6.0 15.0 0.00 0.00 0.00 78 1016.7
20260502162328 73 119 7.0 14.0 0.00 0.00 0.00 77 1016.7
20260502161827 73 81 7.0 16.0 0.00 0.00 0.00 77 1016.8
20260502161328 73 121 11.0 16.0 0.00 0.00 0.00 77 1016.6
20260502160815 73 140 5.0 17.0 0.00 0.00 0.00 77 1016.6
20260502160316 73 105 6.0 17.0 0.00 0.00 0.00 77 1016.7
20260502152253 73 91 7.0 15.0 0.00 0.00 0.00 78 1016.4
20260502152023 73 57 6.0 16.0 0.00 0.00 0.00 78 1016.4
20260502151252 73 108 3.0 16.0 0.00 0.00 0.00 78 1016.6
20260502150752 73 98 5.0 14.0 0.00 0.00 0.00 77 1016.3
20260502150251 73 88 6.0 13.0 0.00 0.00 0.00 78 1016.5
20260502130252 73 91 4.0 15.0 0.00 0.02 0.00 75 1016.7
20260502123240 73 127 5.0 16.0 0.00 0.02 0.00 77 1017.0
20260502122739 73 115 3.0 16.0 0.00 0.02 0.00 77 1017.0
20260502122240 73 40 5.0 15.0 0.00 0.02 0.00 77 1017.0
20260502121740 73 123 11.0 15.0 0.00 0.02 0.00 76 1017.1
20260502121511 73 67 10.0 15.0 0.00 0.02 0.00 76 1017.0
20260502120740 73 126 8.0 15.0 0.00 0.02 0.00 76 1017.3
20260502120240 73 102 10.0 14.0 0.00 0.02 0.00 76 1017.4
20260502115738 73 92 5.0 15.0 0.00 0.02 0.00 76 1017.5
20260502115239 73 80 6.0 15.0 0.00 0.02 0.00 75 1017.3
20260502114739 73 114 3.0 15.0 0.00 0.02 0.00 76 1017.3
20260502114238 73 125 4.0 16.0 0.00 0.02 0.00 77 1017.5
20260502113738 73 111 8.0 16.0 0.00 0.02 0.00 78 1017.7
20260502113510 73 145 5.0 14.0 0.00 0.02 0.00 79 1017.4
20260502112740 73 90 8.0 14.0 0.00 0.02 0.00 77 1017.4
20260502112238 73 86 8.0 14.0 0.00 0.02 0.00 76 1017.6
20260502111739 73 125 6.0 16.0 0.00 0.02 0.00 77 1017.7
20260502111240 73 124 8.0 16.0 0.00 0.02 0.00 77 1017.7
20260502110739 73 107 6.0 15.0 0.00 0.02 0.00 77 1017.6
20260502110238 73 100 8.0 15.0 0.00 0.02 0.00 80 1017.7
20260502105739 73 125 8.0 14.0 0.00 0.02 0.00 80 1017.8
20260502105238 73 92 7.0 15.0 0.00 0.02 0.00 80 1018.1
20260502105009 73 121 6.0 15.0 0.00 0.02 0.00 80 1018.2
20260502104240 73 110 3.0 19.0 0.00 0.02 0.00 79 1018.0
20260502103739 73 101 7.0 19.0 0.00 0.02 0.00 79 1017.9
20260502103510 73 90 5.0 13.0 0.00 0.02 0.00 80 1017.9
20260502102739 73 95 7.0 19.0 0.00 0.02 0.00 80 1018.1
20260502102240 73 89 9.0 19.0 0.00 0.02 0.00 79 1018.1
20260502101738 73 99 5.0 14.0 0.00 0.02 0.00 79 1018.1
20260502101509 73 89 5.0 16.0 0.00 0.02 0.00 78 1018.2
20260502100738 73 105 11.0 16.0 0.00 0.02 0.00 77 1018.3
20260502100509 74 98 5.0 19.0 0.00 0.02 0.00 78 1018.1
20260502091239 74 90 6.0 16.0 0.00 0.03 0.02 77 1018.6
20260502091009 74 82 4.0 17.0 0.00 0.03 0.02 77 1018.4
20260502090239 74 83 8.0 17.0 0.00 0.03 0.02 78 1018.5
20260502071153 75 91 9.0 15.0 0.00 0.03 0.02 75 1018.4
20260502070922 75 157 7.0 15.0 0.00 0.03 0.02 73 1018.6
20260502070151 75 86 6.0 17.0 0.00 0.03 0.02 75 1018.3
20260502065921 75 81 6.0 17.0 0.00 0.03 0.02 76 1018.4
20260502065151 75 86 5.0 15.0 0.00 0.03 0.02 77 1018.4
20260502064651 75 82 4.0 15.0 0.00 0.03 0.02 77 1018.4
20260502064151 75 104 7.0 14.0 0.00 0.03 0.02 77 1018.3
20260502063650 75 110 6.0 14.0 0.00 0.03 0.02 77 1018.1
20260502063421 75 66 8.0 14.0 0.00 0.03 0.02 77 1018.1
20260502062650 75 73 8.0 14.0 0.00 0.03 0.02 77 1018.1
20260502062150 75 94 6.0 15.0 0.00 0.03 0.02 77 1018.1
20260502061651 75 100 4.0 15.0 0.00 0.03 0.02 77 1018.0
20260502061424 75 109 7.0 16.0 0.00 0.03 0.02 76 1017.9
20260502060921 75 115 6.0 19.0 0.00 0.03 0.02 76 1017.9
20260502060138 74 106 11.0 19.0 0.00 0.03 0.02 76 1017.7
20260502055638 74 94 6.0 13.0 0.00 0.03 0.02 77 1017.8
20260502055138 74 34 4.0 17.0 0.00 0.03 0.02 76 1017.6
20260502054638 74 120 4.0 17.0 0.00 0.03 0.02 76 1017.7
20260502054138 75 108 4.0 20.0 0.00 0.03 0.02 78 1017.5
20260502053910 75 84 6.0 20.0 0.00 0.03 0.02 77 1017.4
20260502053140 75 84 6.0 15.0 0.00 0.03 0.02 77 1017.6
20260502052639 75 85 9.0 20.0 0.00 0.03 0.02 75 1017.4
20260502052139 75 88 4.0 20.0 0.00 0.03 0.02 76 1017.2
20260502051640 75 112 9.0 17.0 0.00 0.03 0.02 76 1017.3
20260502051410 75 84 9.0 17.0 0.00 0.03 0.02 76 1017.3
20260502050640 75 94 6.0 19.0 0.00 0.03 0.02 74 1017.2
20260502050138 75 52 8.0 19.0 0.00 0.03 0.02 74 1017.1
20260502045639 75 111 9.0 16.0 0.00 0.03 0.02 73 1016.9
20260502045139 75 99 8.0 16.0 0.00 0.03 0.02 74 1017.1
20260502044910 75 94 8.0 16.0 0.00 0.03 0.02 74 1016.8
20260502044409 75 97 8.0 16.0 0.00 0.03 0.02 75 1016.9
20260502043639 76 74 13.0 16.0 0.00 0.03 0.02 74 1016.9
20260502043138 76 122 5.0 15.0 0.00 0.03 0.02 75 1017.0
20260502042638 75 126 8.0 21.0 0.00 0.03 0.02 75 1016.9
20260502042139 76 51 14.0 21.0 0.00 0.03 0.02 75 1016.7
20260502041639 76 126 5.0 17.0 0.00 0.03 0.02 75 1016.7
20260502041140 76 75 3.0 19.0 0.00 0.03 0.02 75 1016.7
20260502040638 76 105 9.0 19.0 0.00 0.03 0.02 73 1016.3
20260502040138 76 96 8.0 16.0 0.00 0.03 0.02 74 1016.7
20260502035638 76 61 8.0 16.0 0.00 0.03 0.02 74 1016.7
20260502035138 76 113 10.0 17.0 0.00 0.03 0.02 74 1016.4
20260502034638 76 139 5.0 17.0 0.00 0.03 0.02 74 1016.6
20260502034139 76 109 8.0 21.0 0.00 0.03 0.02 72 1016.6
20260502033639 76 83 8.0 21.0 0.00 0.03 0.02 74 1016.5
20260502033138 76 112 6.0 20.0 0.00 0.03 0.02 75 1016.3
20260502032639 76 93 6.0 20.0 0.00 0.03 0.02 74 1016.2
20260502032138 77 82 8.0 17.0 0.00 0.03 0.02 73 1016.3
20260502031640 77 115 10.0 17.0 0.00 0.03 0.02 72 1016.2
20260502031409 76 71 13.0 16.0 0.00 0.03 0.02 73 1016.1
20260502030639 76 129 6.0 17.0 0.00 0.03 0.02 72 1016.3
20260502030140 77 95 13.0 20.0 0.00 0.03 0.02 73 1016.2
20260502025640 77 108 6.0 20.0 0.00 0.03 0.02 70 1016.0
20260502025140 77 62 14.0 19.0 0.00 0.03 0.02 72 1016.0
20260502024638 77 107 11.0 17.0 0.00 0.03 0.02 70 1016.1
20260502024139 77 84 8.0 17.0 0.00 0.03 0.02 72 1016.0
20260502023639 77 60 12.0 17.0 0.00 0.03 0.02 74 1016.0
20260502023139 78 68 11.0 21.0 0.00 0.03 0.02 72 1016.1
20260502022638 78 90 8.0 21.0 0.00 0.03 0.02 71 1015.8
20260502022416 78 87 8.0 20.0 0.00 0.03 0.02 72 1015.8
20260502022139 79 126 11.0 20.0 0.00 0.03 0.02 71 1016.0
20260502021410 78 65 9.0 20.0 0.00 0.03 0.02 72 1016.1
20260502020638 78 120 14.0 20.0 0.00 0.03 0.02 71 1016.3
20260502020410 78 123 6.0 17.0 0.00 0.03 0.02 73 1015.9
20260502015639 79 116 6.0 20.0 0.00 0.03 0.02 71 1016.3
20260502015139 79 73 9.0 20.0 0.00 0.03 0.02 70 1016.1
20260502014639 79 85 9.0 17.0 0.00 0.03 0.02 68 1016.2
20260502014139 79 72 6.0 19.0 0.00 0.03 0.02 68 1016.1
20260502013638 79 78 8.0 19.0 0.00 0.03 0.02 68 1016.0
20260502013410 79 52 6.0 19.0 0.00 0.03 0.02 69 1016.3
20260502012639 79 84 10.0 17.0 0.00 0.03 0.02 68 1016.3
20260502012139 79 69 12.0 17.0 0.00 0.03 0.02 68 1016.2
20260502011639 79 92 10.0 20.0 0.00 0.03 0.02 67 1016.6
20260502011140 79 59 7.0 20.0 0.00 0.03 0.02 68 1016.7
20260502010639 80 102 12.0 19.0 0.00 0.03 0.02 69 1016.4
20260502010141 79 78 6.0 19.0 0.00 0.03 0.02 68 1016.6
20260502005639 80 98 7.0 15.0 0.00 0.03 0.02 66 1016.7
20260502005127 80 77 7.0 15.0 0.00 0.03 0.02 67 1016.9
20260502004857 80 59 6.0 15.0 0.00 0.03 0.02 66 1016.6
20260502004127 80 126 3.0 17.0 0.00 0.03 0.02 68 1016.7
20260502003627 79 65 8.0 17.0 0.00 0.03 0.02 66 1016.9
20260502003127 80 107 8.0 17.0 0.00 0.03 0.02 64 1017.0
20260502002627 80 89 11.0 19.0 0.00 0.03 0.02 66 1017.0
20260502002127 79 108 6.0 19.0 0.00 0.03 0.02 67 1016.9
20260502001846 80 115 9.0 17.0 0.00 0.03 0.02 66 1017.0
20260502001115 80 42 6.0 17.0 0.00 0.03 0.02 66 1016.8
20260502000615 80 85 9.0 19.0 0.00 0.03 0.02 66 1017.1
20260502000114 80 108 6.0 19.0 0.00 0.03 0.02 65 1017.2
20260501235614 80 95 14.0 19.0 0.00 0.03 0.02 62 1017.1
20260501235114 80 106 5.0 19.0 0.00 0.03 0.02 68 1017.0
20260501234615 79 75 10.0 17.0 0.00 0.03 0.02 68 1017.1
20260501234103 80 103 8.0 21.0 0.00 0.03 0.02 65 1017.2
20260501233551 80 62 8.0 21.0 0.00 0.03 0.02 66 1017.4
20260501233050 80 58 9.0 17.0 0.00 0.03 0.02 66 1017.4
20260501232550 80 96 8.0 19.0 0.00 0.03 0.02 68 1017.2
20260501232051 79 110 8.0 19.0 0.00 0.03 0.02 68 1017.4
20260501231551 79 100 14.0 17.0 0.00 0.03 0.02 68 1017.6
20260501231050 80 106 6.0 17.0 0.00 0.03 0.02 68 1017.8
20260501230551 80 25 7.0 16.0 0.00 0.03 0.02 67 1017.7
20260501230039 80 65 7.0 17.0 0.00 0.03 0.02 64 1017.9
20260501225810 80 91 10.0 19.0 0.00 0.03 0.02 64 1017.9
20260501225039 79 107 6.0 20.0 0.00 0.03 0.02 67 1017.7
20260501224539 79 127 11.0 20.0 0.00 0.03 0.02 66 1018.0
20260501224309 79 86 13.0 20.0 0.00 0.03 0.02 65 1018.0
20260501223539 78 88 12.0 16.0 0.00 0.03 0.02 71 1018.1
20260501223040 78 130 6.0 20.0 0.00 0.03 0.02 74 1018.1
20260501222540 78 92 8.0 20.0 0.00 0.03 0.02 70 1018.3
20260501222039 79 74 9.0 17.0 0.00 0.03 0.02 70 1018.3
20260501221538 79 104 4.0 17.0 0.00 0.03 0.02 73 1018.3
20260501221310 78 65 8.0 17.0 0.00 0.03 0.02 70 1018.3
20260501220539 79 82 13.0 17.0 0.00 0.03 0.02 69 1018.5
20260501220039 80 120 9.0 20.0 0.00 0.03 0.02 69 1018.2
20260501215527 80 80 8.0 20.0 0.00 0.03 0.02 67 1018.2
20260501215027 80 115 10.0 20.0 0.00 0.03 0.02 67 1018.2
20260501214527 80 103 10.0 19.0 0.00 0.03 0.02 67 1018.3
20260501214028 79 89 8.0 23.0 0.00 0.03 0.02 67 1018.3
20260501213526 80 114 6.0 23.0 0.00 0.03 0.02 67 1018.4
20260501213028 80 116 6.0 20.0 0.00 0.03 0.02 68 1018.4
20260501212526 79 55 11.0 19.0 0.00 0.03 0.02 68 1018.4
20260501212015 79 120 8.0 23.0 0.00 0.03 0.02 66 1018.5
20260501211515 80 98 11.0 20.0 0.00 0.03 0.02 64 1018.6
20260501211003 80 121 4.0 20.0 0.00 0.03 0.02 65 1018.7
20260501210503 80 137 2.0 21.0 0.00 0.03 0.02 66 1018.6
20260501210234 79 51 8.0 23.0 0.00 0.03 0.02 67 1018.5
20260501205502 79 52 14.0 23.0 0.00 0.03 0.02 69 1018.7
20260501205002 79 104 13.0 23.0 0.00 0.03 0.02 68 1018.5
20260501204502 79 113 0.0 26.0 0.00 0.03 0.02 70 1018.5
20260501204002 78 110 4.0 26.0 0.00 0.03 0.02 67 1018.8
20260501203721 78 128 0.0 20.0 0.00 0.03 0.02 68 1018.9
20260501202950 78 101 10.0 20.0 0.00 0.03 0.02 70 1018.8
20260501202451 78 102 6.0 20.0 0.00 0.03 0.02 70 1018.6
20260501201951 78 90 4.0 26.0 0.00 0.03 0.02 73 1018.8
20260501201451 78 82 13.0 26.0 0.00 0.03 0.02 72 1018.8
20260501200951 77 117 5.0 24.0 0.00 0.03 0.02 74 1018.6